User: anonymous   Login
Location: Hale Hill Observatory
(39.3806°N, 86.8431°W)
Time: 07:26:21
(UTC-05:00)
Language:

Cosmos 990 Rocket - Orbit

View from above orbital plane
View from above orbital plane
View from above satellite
View from above satellite

Ground track
Ground track

The orbit data is extracted from the following two-line orbital elements,

1 10677U 78019B   15059.08023119  .00000193  00000-0  69819-4 0  9990
2 10677 074.0367 053.3821 0015930 329.6810 030.3421 14.39805950941572
Epoch (UTC): 28 February 2015 01:55:31
Eccentricity: 0.0015930
inclination: 74.0367°
perigee height: 748 km
apogee height: 770 km
right ascension of ascending node: 53.3821°
argument of perigee: 329.6810°
revolutions per day: 14.39805950
mean anomaly at epoch: 30.3421°
orbit number at epoch: 94157

The dashed part of the orbit path shows where the satellite is in the earth's shadow,  

DLR